Location: Grust
(42.8833°N, 0.0333°W)
Time: 14:42:49
(UTC+00:00)

Cosmos 1346 Rocket - Pass Details

Date: 25 October 2020
Orbit: 535 x 543 km, 81.2° (Epoch: 25 November)

Event Time Altitude Azimuth Distance (km) Brightness Sun altitude
Rises 18:00:33 0° 5° (N) 2,712 6.2 -11.4°
Reaches altitude 10° 18:03:15 10° 24° (NNE) 1,816 5.2 -11.9°
Maximum altitude 18:06:08 19° 70° (ENE) 1,337 4.2 -12.4°
Enters shadow 18:06:17 19° 73° (ENE) 1,339 4.2 -12.5°
